Weather reports worldwide

Advertisment
Loch Glascarnoch, United Kingdom (3031): temperature & dewpoint: 20.03.2019 19:00:00 - 26.03.2019 19:00:00 (GMT)Loch Glascarnoch, United Kingdom (3031): temperature -20cm & temperature -100cm: 20.03.2019 19:00:00 - 26.03.2019 19:00:00 (GMT)Loch Glascarnoch, United Kingdom (3031): wind speed & gusts: 20.03.2019 19:00:00 - 26.03.2019 19:00:00 (GMT)Loch Glascarnoch, United Kingdom (3031): wind direction: 20.03.2019 19:00:00 - 26.03.2019 19:00:00 (GMT)Loch Glascarnoch, United Kingdom (3031): reduced air pressure: 20.03.2019 19:00:00 - 26.03.2019 19:00:00 (GMT)Loch Glascarnoch, United Kingdom (3031): visibility: 20.03.2019 19:00:00 - 26.03.2019 19:00:00 (GMT)Loch Glascarnoch, United Kingdom (3031): sunshine duration: 20.03.2019 19:00:00 - 26.03.2019 19:00:00 (GMT)Loch Glascarnoch, United Kingdom (3031): precipitation: 20.03.2019 19:00:00 - 26.03.2019 19:00:00 (GMT)
Date & Time tt [°C] td [°C] tt -20cm [°C] tt -100cm [°C] ff [km/h] ff [kn] fx [km/h] fx [kn] dd ppp [hPa] vv [km] sd [min] rr [mm]
26.03.2019 19:00:00 8,5 5,4 - - 28 15 46 25 W 1027,3 22 0 0,0
26.03.2019 18:00:00 8,9 5,3 - - 28 15 57 31 WNW 1027,2 22 0 0,0
26.03.2019 17:00:00 9,2 5,9 - - 41 22 57 31 W 1027,0 22 0 0,0
26.03.2019 16:00:00 9,1 5,9 - - 41 22 55 30 W 1027,3 26 0 0,0
26.03.2019 15:00:00 9,2 5,4 - - 39 21 63 34 W 1027,3 50 0 0,0
26.03.2019 14:00:00 8,7 5,7 - - 31 17 46 25 W 1027,7 40 0 0,0
26.03.2019 13:00:00 8,2 5,8 - - 28 15 - - W 1027,8 23 0 0,0
26.03.2019 12:00:00 8,0 5,0 - - 22 12 - - WNW 1027,7 40 0 0,0
26.03.2019 11:00:00 8,5 4,8 - - 21 11 - - WNW 1027,5 50 0 0,0
26.03.2019 10:00:00 7,8 4,2 - - 16 9 - - W 1027,6 50 0 0,0
26.03.2019 09:00:00 6,7 4,2 5,2 5,0 26 14 46 25 WNW 1027,6 50 24 0,0
26.03.2019 08:00:00 5,9 4,2 - - 29 16 50 27 WNW 1027,7 40 6 0,0
26.03.2019 07:00:00 6,2 3,8 - - 35 19 48 26 W 1027,8 45 0 0,0
26.03.2019 06:00:00 5,2 3,3 - - 26 14 46 25 W 1028,7 40 0 0,0
26.03.2019 05:00:00 5,5 3,2 - - 34 18 46 25 W 1028,8 40 0 0,0
26.03.2019 04:00:00 5,1 3,1 - - 26 14 - - WNW 1029,4 50 0 0,2
26.03.2019 03:00:00 4,6 2,9 - - 16 9 - - WNW 1030,4 50 0 0,0
26.03.2019 02:00:00 4,9 3,3 - - 28 15 - - W 1030,3 16 0 0,2
26.03.2019 01:00:00 5,1 3,2 - - 24 13 - - W 1030,8 16 0 0,0
26.03.2019 00:00:00 4,9 3,3 - - 11 6 - - W 1031,3 35 - 0,0
25.03.2019 23:00:00 5,2 3,3 - - 18 10 - - W 1031,4 10 0 0,0
25.03.2019 22:00:00 5,6 2,4 - - 18 10 - - W 1031,7 18 0 0,0
25.03.2019 21:00:00 5,7 2,0 - - 24 13 - - W 1031,8 50 0 0,0
25.03.2019 20:00:00 5,7 2,6 - - 22 12 - - W 1032,0 50 0 0,0
25.03.2019 19:00:00 5,2 4,2 - - 9 5 - - W 1032,0 45 0 0,2
25.03.2019 18:00:00 6,3 3,4 - - 16 9 - - W 1031,8 35 0 0,0
25.03.2019 17:00:00 7,0 3,8 - - 21 11 - - W 1032,3 29 6 0,0
25.03.2019 16:00:00 8,2 3,2 - - 28 15 - - W 1032,2 27 12 0,0
25.03.2019 15:00:00 7,3 2,7 - - 24 13 - - WNW 1032,4 30 0 0,0
25.03.2019 14:00:00 7,0 2,6 - - 24 13 - - W 1032,4 29 0 0,0
25.03.2019 13:00:00 6,2 2,0 - - 31 17 - - WNW 1032,7 30 0 0,0
25.03.2019 12:00:00 6,2 2,5 - - 22 12 - - W 1032,7 24 0 0,0
25.03.2019 11:00:00 5,2 1,8 - - 28 15 - - W 1032,6 22 0 0,0
25.03.2019 10:00:00 5,2 2,4 - - 22 12 - - WNW 1032,5 25 0 0,0
25.03.2019 09:00:00 4,7 2,3 5,0 5,0 18 10 - - W 1032,3 24 6 0,0
25.03.2019 08:00:00 3,6 2,2 - - 16 9 - - W 1031,9 24 0 0,0
25.03.2019 07:00:00 3,1 1,3 - - 16 9 - - W 1031,6 21 0 0,0
25.03.2019 06:00:00 3,8 1,8 - - 18 10 - - W 1031,0 17 0 0,0
25.03.2019 05:00:00 4,1 2,3 - - 22 12 - - WNW 1030,2 15 0 0,0
25.03.2019 04:00:00 3,9 2,2 - - 18 10 - - W 1029,5 14 0 0,0
25.03.2019 03:00:00 4,0 2,4 - - 22 12 - - WNW 1028,8 12 0 0,0
25.03.2019 02:00:00 4,1 2,3 - - 29 16 54 29 WNW 1027,9 13 0 0,2
25.03.2019 01:00:00 4,2 2,4 - - 41 22 55 30 WNW 1027,1 9 0 0,0
25.03.2019 00:00:00 4,1 2,4 - - 41 22 61 33 WNW 1026,5 12 - 0,0
24.03.2019 23:00:00 3,9 2,9 - - 37 20 76 41 WNW 1025,7 14 0 1,0
24.03.2019 22:00:00 3,4 2,0 - - 39 21 74 40 WNW 1025,1 17 0 0,6
24.03.2019 21:00:00 3,6 2,1 - - 35 19 72 39 WNW 1023,6 18 0 0,4
24.03.2019 20:00:00 3,9 1,3 - - 35 19 65 35 WNW 1022,7 6 0 0,0
24.03.2019 19:00:00 4,2 0,7 - - 48 26 72 39 W 1021,7 14 0 0,2
24.03.2019 18:00:00 3,7 0,9 - - 35 19 81 44 W 1021,0 22 0 0,0
24.03.2019 17:00:00 4,0 0,3 - - 41 22 72 39 W 1020,4 18 0 0,0
24.03.2019 16:00:00 2,8 0,0 - - 42 23 80 43 W 1020,4 4,4 12 0,2
24.03.2019 15:00:00 3,5 1,0 - - 41 22 76 41 W 1019,5 23 6 0,6
24.03.2019 14:00:00 4,3 1,9 - - 39 21 65 35 W 1019,0 19 12 0,4
24.03.2019 13:00:00 0,9 0,0 - - 39 21 59 32 W 1019,7 1,3 0 0,6
24.03.2019 12:00:00 1,8 0,9 - - 42 23 67 36 W 1019,4 4,0 12 1,2
24.03.2019 11:00:00 5,7 3,9 - - 39 21 83 45 W 1018,2 30 6 0,6
24.03.2019 10:00:00 5,0 2,3 - - 42 23 70 38 W 1018,0 22 6 1,0
24.03.2019 09:00:00 5,0 1,6 5,2 5,2 48 26 76 41 W 1017,6 8 0 0,2
24.03.2019 08:00:00 4,4 1,7 - - 44 24 70 38 W 1018,2 15 0 0,0
24.03.2019 07:00:00 4,3 1,9 - - 39 21 74 40 W 1018,7 10 0 1,6
24.03.2019 06:00:00 4,1 1,7 - - 37 20 65 35 WSW 1019,1 30 0 0,6
24.03.2019 05:00:00 3,4 1,6 - - 29 16 52 28 W 1020,2 5 0 1,8
24.03.2019 04:00:00 2,8 1,1 - - 28 15 63 34 W 1021,4 2,4 0 0,8
24.03.2019 03:00:00 3,4 0,5 - - 37 20 63 34 WSW 1022,2 50 0 0,6
24.03.2019 02:00:00 3,9 0,0 - - 39 21 55 30 W 1022,6 27 0 0,2
24.03.2019 01:00:00 3,7 0,6 - - 31 17 57 31 W 1023,6 40 0 0,2
24.03.2019 00:00:00 4,2 0,4 - - 35 19 55 30 W 1024,7 50 - 0,0
23.03.2019 23:00:00 4,0 0,0 - - 39 21 67 36 W 1025,3 45 0 0,0
23.03.2019 22:00:00 2,3 1,2 - - 22 12 55 30 W 1027,1 15 0 0,4
23.03.2019 21:00:00 4,0 -0,4 - - 35 19 57 31 W 1027,1 50 0 0,2
23.03.2019 20:00:00 4,0 0,1 - - 16 9 52 28 W 1027,8 45 0 0,2
23.03.2019 19:00:00 4,5 -0,1 - - 21 11 48 26 WSW 1027,6 45 0 0,0
23.03.2019 18:00:00 4,7 0,5 - - 28 15 46 25 W 1027,5 40 0 0,2
23.03.2019 17:00:00 4,6 0,5 - - 31 17 - - WSW 1027,8 45 6 0,0
23.03.2019 16:00:00 4,9 1,6 - - 28 15 57 31 W 1028,0 45 24 0,2
23.03.2019 15:00:00 6,1 -0,8 - - 35 19 65 35 W 1027,6 35 24 0,0
23.03.2019 14:00:00 6,1 0,6 - - 39 21 59 32 W 1027,5 25 48 0,0
23.03.2019 13:00:00 7,1 0,1 - - 46 25 70 38 W 1026,8 35 60 0,0
23.03.2019 12:00:00 6,3 -0,5 - - 48 26 67 36 W 1026,3 14 54 0,0
23.03.2019 11:00:00 5,7 1,1 - - 48 26 61 33 W 1026,4 15 48 0,0
23.03.2019 10:00:00 4,8 0,5 - - 46 25 61 33 W 1025,9 18 42 0,0
23.03.2019 09:00:00 3,0 0,0 5,5 5,2 44 24 65 35 W 1025,8 10 48 0,0
23.03.2019 08:00:00 3,1 -0,5 - - 41 22 57 31 W 1025,1 23 18 0,6
23.03.2019 07:00:00 1,1 -0,2 - - 41 22 68 37 W 1025,0 1,1 0 0,4
23.03.2019 06:00:00 2,0 -0,7 - - 42 23 74 40 W 1023,2 19 0 0,2
23.03.2019 05:00:00 2,0 -0,6 - - 42 23 72 39 W 1022,2 29 0 0,4
23.03.2019 04:00:00 2,6 -2,2 - - 46 25 78 42 W 1021,2 30 0 0,4
23.03.2019 03:00:00 1,6 -1,1 - - 44 24 70 38 W 1021,7 1,3 0 0,2
23.03.2019 02:00:00 2,7 -2,0 - - 46 25 72 39 W 1020,6 15 0 0,0
23.03.2019 01:00:00 2,7 -2,3 - - 41 22 67 36 W 1020,1 2,5 0 0,0
23.03.2019 00:00:00 2,7 -3,6 - - 50 27 81 44 W 1019,3 23 - 0,0
22.03.2019 23:00:00 2,2 -2,2 - - 48 26 74 40 W 1019,0 26 0 0,2
22.03.2019 22:00:00 2,1 -1,3 - - 37 20 67 36 W 1018,2 25 0 0,6
22.03.2019 21:00:00 1,6 0,0 - - 37 20 76 41 W 1017,5 9 0 0,4
22.03.2019 20:00:00 3,4 -1,9 - - 50 27 78 42 W 1016,0 26 0 0,2
22.03.2019 19:00:00 3,9 -0,8 - - 46 25 70 38 W 1014,9 14 0 0,0
22.03.2019 18:00:00 2,9 0,8 - - 50 27 78 42 W 1014,6 7 0 2,0
22.03.2019 17:00:00 5,5 0,5 - - 41 22 65 35 WSW 1012,8 15 0 0,2
22.03.2019 16:00:00 5,6 0,5 - - 42 23 74 40 WSW 1012,7 21 24 0,8
22.03.2019 15:00:00 7,2 0,4 - - 42 23 72 39 WSW 1012,0 26 48 0,0
22.03.2019 14:00:00 6,5 2,6 - - 52 28 74 40 W 1011,8 17 24 1,0
22.03.2019 13:00:00 6,7 3,6 - - 44 24 63 34 WSW 1011,2 7 0 0,2
22.03.2019 12:00:00 8,0 4,7 - - 39 21 55 30 WSW 1010,3 11 0 1,4
22.03.2019 11:00:00 7,2 4,5 - - 39 21 74 40 WSW 1010,4 8 0 2,0
22.03.2019 10:00:00 9,0 6,5 - - 48 26 98 53 SW 1009,3 7 0 1,8
22.03.2019 09:00:00 9,2 7,2 5,7 4,9 52 28 89 48 SW 1009,5 6 0 2,2
22.03.2019 08:00:00 9,5 6,6 - - 39 21 94 51 SW 1009,9 9 0 0,6
22.03.2019 07:00:00 9,9 6,1 - - 41 22 76 41 SW 1010,2 6 0 0,0
22.03.2019 06:00:00 10,2 5,1 - - 24 13 50 27 SSW 1010,9 45 0 0,0
22.03.2019 05:00:00 9,9 5,2 - - 26 14 57 31 SW 1011,9 50 0 0,0
22.03.2019 04:00:00 10,0 5,4 - - 15 8 - - S 1013,2 18 0 0,0
22.03.2019 03:00:00 8,4 5,2 - - 16 9 - - SE 1014,6 15 0 0,0
22.03.2019 02:00:00 8,4 5,2 - - 15 8 - - SSE 1015,8 14 0 0,0
22.03.2019 01:00:00 9,2 6,1 - - 21 11 - - SE 1017,0 20 0 0,0
22.03.2019 00:00:00 10,0 7,0 - - 22 12 - - SSE 1018,6 30 - 0,0
21.03.2019 23:00:00 9,6 7,6 - - 18 10 - - SE 1019,7 45 0 0,0
21.03.2019 22:00:00 8,8 7,2 - - 22 12 - - SE 1021,2 50 0 0,0
21.03.2019 21:00:00 8,4 6,9 - - 15 8 - - SE 1023,0 35 0 0,2
21.03.2019 20:00:00 8,4 6,5 - - 15 8 - - SSE 1023,9 7 0 0,0
21.03.2019 19:00:00 8,5 5,3 - - 16 9 - - ESE 1024,3 40 0 0,0
21.03.2019 18:00:00 9,4 4,8 - - 11 6 - - SSE 1025,1 50 0 0,0
21.03.2019 17:00:00 9,6 3,7 - - 9 5 - - S 1025,4 50 48 0,0
21.03.2019 16:00:00 10,0 2,2 - - 11 6 - - S 1026,7 50 30 0,0
21.03.2019 15:00:00 11,2 4,0 - - 13 7 - - WNW 1027,2 40 36 0,0
21.03.2019 14:00:00 10,5 2,2 - - 16 9 - - WSW 1027,2 45 60 0,0
21.03.2019 13:00:00 10,3 4,6 - - 24 13 - - SW 1027,0 45 18 0,0
21.03.2019 12:00:00 9,6 6,0 - - 13 7 - - SW 1026,8 50 6 0,0
21.03.2019 11:00:00 8,1 6,8 - - 11 6 - - WNW 1027,1 40 12 0,0
21.03.2019 10:00:00 6,9 6,4 - - 8 4 - - WNW 1026,7 40 0 0,0
21.03.2019 09:00:00 6,5 6,0 5,2 4,7 15 8 - - WNW 1026,3 19 0 0,2
21.03.2019 08:00:00 6,1 5,3 - - 16 9 - - WNW 1025,3 2,1 0 0,2
21.03.2019 07:00:00 7,1 6,1 - - 28 15 - - WNW 1023,4 5 0 0,4
21.03.2019 06:00:00 7,5 6,7 - - 22 12 48 26 WNW 1021,8 50 0 0,4
21.03.2019 05:00:00 9,3 7,8 - - 34 18 48 26 W 1019,9 7 0 0,6
21.03.2019 04:00:00 9,9 8,1 - - 28 15 52 28 W 1018,9 9 0 1,4
21.03.2019 03:00:00 10,1 8,1 - - 31 17 48 26 W 1018,4 5 0 0,8
21.03.2019 02:00:00 10,3 8,2 - - 31 17 57 31 WSW 1018,3 6 0 1,2
21.03.2019 01:00:00 10,2 8,4 - - 31 17 48 26 WSW 1018,0 4,8 0 0,6
21.03.2019 00:00:00 10,3 8,4 - - 28 15 52 28 WSW 1017,8 5 - 0,0
20.03.2019 23:00:00 10,1 8,1 - - 35 19 57 31 WSW 1017,6 6 0 0,0
20.03.2019 22:00:00 10,2 8,0 - - 35 19 74 40 W 1017,3 12 0 0,2
20.03.2019 21:00:00 9,8 8,0 - - 34 18 57 31 WSW 1017,4 8 0 0,0
20.03.2019 20:00:00 9,9 7,6 - - 34 18 63 34 WSW 1017,7 7 0 0,2
20.03.2019 19:00:00 9,9 7,4 - - 31 17 65 35 SW 1017,9 12 0 0,0

tt = temperature
td = dewpoint
tt -20cm = temperature -20cm
tt -100cm = temperature -100cm
ff = wind speed
fx = gusts
dd = wind direction
ppp = reduced air pressure
vv = visibility
sd = sunshine duration
rr = precipitation

Next stations